SCP
0 0 0 0 0 0 0 0 0 0 0 0 0 0 0 0 1 1 1 1 1 1 1 1 1 1 1 1 0 0 0 1 1 1 1 1 1 1 1 0 0 0 0
0 0 0 0 0 0 0 0 0 0 0 0 0 0 0 0 1 1 2 2 1 1 1 1 0 0 0 0 0 0 0 1 0 1 1 1 1 1 0 0 0 0 0
0 0 0 0 0 0 0 0 0 0 0 0 0 0 0 0 1 1 2 2 2 1 1 1 0 0 0 0 0 0 0 0 0 0 0 0 0 0 0 0 0 0 0
0 0 0 0 0 0 0 0 0 0 0 0 0 0 1 1 1 1 2 2 2 1 1 0 0 0 0 0 0 0 0 0 0 0 0 0 0 0 0 0 0 0 0
1 1 0 0 0 0 0 0 0 0 0 0 0 1 1 1 1 2 2 2 2 1 1 0 0 0 0 0 0 0 0 0 0 0 0 0 0 0 0 0 0 0 0
1 1 0 0 1 0 0 0 0 0 0 0 1 1 1 1 1 2 2 2 1 1 0 0 0 0 0 0 0 0 0 0 0 0 0 0 0 0 0 0 0 0 0
1 1 1 1 1 1 0 0 0 0 0 0 1 1 1 1 1 1 1 1 1 1 0 0 0 0 1 0 0 0 1 1 0 0 0 0 0 0 0 0 0 0 0
1 1 1 1 1 0 0 0 0 0 0 0 0 1 1 1 1 1 1 1 1 0 0 0 0 0 1 0 0 0 1 1 1 0 0 0 0 0 0 0 0 0 0
1 1 1 1 1 0 0 0 0 0 0 0 0 0 1 1 1 0 0 0 0 0 0 0 0 0 0 0 0 0 1 1 1 0 0 0 0 0 0 0 0 0 0
1 1 1 1 1 1 0 0 0 0 0 0 0 0 0 0 0 0 0 0 0 0 0 0 0 0 0 0 0 0 1 1 0 0 0 1 1 1 1 1 1 1 0
0 0 0 1 1 1 1 1 1 1 1 0 0 0 0 0 0 0 0 0 0 0 0 0 0 0 0 0 1 1 1 0 0 0 0 1 1 2 2 2 1 1 1
0 0 1 1 1 1 1 1 1 1 1 1 1 0 0 0 0 0 1 1 1 1 1 1 1 1 1 1 1 1 1 1 0 0 1 1 2 2 3 3 2 1 1
1 1 1 1 2 1 1 1 1 1 1 1 1 1 0 0 0 0 1 1 1 1 1 1 1 1 1 1 1 1 1 1 0 0 1 1 2 2 3 2 2 2 1
1 1 1 1 2 2 2 1 1 1 2 2 2 1 0 0 0 1 1 1 1 1 1 1 1 1 1 1 1 1 1 1 1 1 1 1 1 2 2 2 1 1 1
2 1 1 2 3 3 3 2 1 1 2 2 2 1 1 0 1 1 1 1 1 1 1 1 1 1 1 1 1 1 1 1 1 1 1 1 1 1 1 1 1 1 1
2 2 1 2 3 3 3 2 1 1 2 2 1 1 1 1 1 1 1 1 1 1 1 1 1 2 2 2 1 1 1 1 1 1 1 1 1 1 1 1 1 1 1
2 2 2 2 3 3 3 2 2 1 2 2 1 1 1 1 1 1 1 1 1 1 1 2 2 2 2 2 2 2 2 2 1 1 1 1 1 1 1 1 1 1 1
2 2 2 2 3 3 2 2 2 2 2 2 2 2 1 1 2 2 2 2 2 2 2 2 2 2 2 2 2 2 2 2 1 1 1 1 1 1 1 1 1 1 1
2 2 2 3 3 3 2 2 2 2 2 2 2 2 2 2 2 2 2 2 2 2 3 2 2 2 2 2 2 2 2 2 1 1 1 1 1 1 1 1 1 1 1
3 2 2 3 3 3 3 2 2 2 2 2 2 2 2 2 2 2 2 2 2 2 2 2 2 2 3 3 2 2 2 2 2 1 1 1 1 1 1 1 1 1 1
3 3 3 3 4 4 3 3 3 3 2 2 3 3 2 2 2 2 2 2 2 2 2 2 2 3 3 3 2 2 2 2 2 2 1 1 1 1 1 1 1 2 2
3 3 3 4 4 4 4 3 3 3 3 2 3 4 3 3 2 2 2 2 2 2 2 2 3 3 2 2 2 2 2 2 2 2 2 2 1 1 1 1 2 2 3
4 3 3 4 4 4 4 4 4 4 3 3 4 5 4 3 3 2 2 3 3 3 3 3 3 3 2 2 2 2 2 2 2 2 2 2 2 2 1 1 2 2 3
4 3 3 3 4 4 4 4 4 4 4 4 4 5 4 4 3 3 3 3 4 4 3 3 3 3 3 3 3 2 3 4 4 3 3 2 2 2 2 1 1 2 2
3 3 3 3 3 3 3 3 4 4 5 4 4 4 4 4 3 3 3 3 4 4 4 4 4 4 4 4 3 3 3 5 6 6 5 4 3 3 2 2 1 2 2
3 3 4 3 3 3 3 3 4 4 5 4 4 4 4 3 3 3 3 3 4 4 3 4 4 4 5 5 4 4 3 4 6 7 6 5 4 3 3 2 2 2 2
Wind_Speed
13 13 13 13 12 12 12 12 12 12 13 13 13 13 13 14 15 15 15 15 14 15 15 16 15 15 15 15 15 15 15 15 15 15 15 15 15 14 13 13 13 11 14
15 14 13 13 12 12 12 12 12 12 13 13 13 13 13 14 15 15 15 15 15 15 15 15 14 14 14 15 15 14 14 14 14 14 14 13 13 13 12 12 12 10 14
15 13 13 12 12 12 12 12 12 12 12 13 13 13 13 14 14 15 15 15 15 15 14 14 13 13 14 14 14 14 13 12 13 13 12 8 10 12 13 14 14 14 13
14 13 12 12 12 12 12 12 12 12 12 12 13 13 13 14 14 14 15 15 14 14 14 13 13 13 13 12 12 12 11 11 10 9 5 7 8 12 12 12 13 13 13
14 13 12 12 11 11 11 12 12 12 13 12 13 13 13 13 14 14 14 14 14 14 13 13 13 12 11 11 10 10 9 9 8 5 5 6 7 11 12 12 12 12 12
14 14 12 11 11 11 11 11 12 12 12 13 13 13 13 13 13 13 13 13 13 13 13 12 12 11 10 9 9 8 6 6 4 4 6 7 7 10 12 11 11 11 10
13 14 12 12 11 11 11 11 11 12 12 12 12 12 12 12 12 12 12 12 12 12 12 11 11 10 10 8 6 5 4 3 1 4 6 7 8 11 11 11 10 10 10
13 14 12 12 11 11 11 11 11 11 11 11 11 12 12 11 11 11 12 12 12 12 12 11 10 9 8 6 4 3 1 2 3 6 7 8 10 11 11 11 10 9 9
12 13 12 11 10 11 11 10 10 10 10 10 10 10 11 10 10 11 11 11 11 10 10 10 9 9 7 5 3 2 2 3 2 4 7 6 10 11 11 10 10 9 9
9 10 10 11 10 10 9 10 10 9 9 8 8 9 9 10 10 10 10 9 10 9 9 9 8 8 6 4 3 2 3 3 3 5 5 7 11 11 11 10 10 9 8
8 6 7 9 8 8 9 10 9 8 7 7 6 8 7 5 7 7 9 9 9 8 8 8 8 7 6 5 5 4 3 2 3 5 5 9 11 11 11 10 9 9 8
6 6 6 7 6 5 6 6 5 5 6 4 3 5 4 3 4 7 9 9 8 8 7 7 7 6 5 4 5 5 3 3 4 5 6 11 10 11 11 10 9 9 8
5 5 7 7 4 4 4 4 2 2 3 3 2 2 2 3 4 5 4 5 5 6 5 6 6 4 3 2 2 3 2 2 3 5 7 11 10 10 10 10 9 9 8
5 6 6 6 5 4 3 2 2 2 2 2 2 1 1 1 1 2 2 3 3 2 2 3 2 3 3 2 1 1 1 1 4 4 6 12 10 10 10 10 9 8 8
5 6 6 6 5 3 2 1 2 2 2 3 2 2 2 1 1 2 1 1 1 2 2 1 1 2 1 1 1 1 1 1 4 5 5 11 11 10 10 10 9 8 8
6 5 5 5 5 3 2 0 1 1 2 2 2 2 1 1 1 1 1 0 0 1 1 2 2 2 1 1 1 1 1 1 3 5 6 7 10 10 9 9 9 8 8
6 6 4 5 5 4 2 1 1 1 2 2 2 2 1 1 1 0 1 1 0 1 1 1 1 1 1 1 1 1 1 1 2 3 5 5 6 8 9 8 8 8 8
6 5 3 3 5 4 2 1 0 1 2 2 1 2 2 2 1 0 0 1 1 0 1 1 1 1 1 1 1 1 1 1 3 2 3 4 5 5 8 9 8 8 8
6 5 3 3 4 3 3 2 1 1 1 1 1 1 2 2 1 1 1 1 1 0 1 1 1 1 1 0 1 1 1 1 2 3 3 4 4 5 5 8 9 8 8
7 5 4 4 3 2 2 2 1 1 1 1 1 2 2 2 2 1 1 1 1 1 1 0 0 1 1 1 2 1 1 2 2 2 3 2 3 5 5 6 6 6 7
7 6 4 3 3 2 1 1 2 2 2 1 2 3 2 1 1 1 0 1 1 1 1 1 1 1 1 2 1 1 1 2 2 1 1 1 2 3 4 5 4 4 3
7 6 5 4 4 3 2 2 1 2 1 2 2 3 2 1 1 2 1 1 1 1 1 1 1 1 2 2 1 1 0 0 0 1 1 1 1 2 3 3 3 3 2
9 7 6 5 4 3 3 2 2 2 0 1 2 2 2 1 1 0 1 1 1 1 1 1 1 2 2 2 2 2 1 1 0 1 0 1 1 2 2 2 3 3 3
9 8 6 5 4 3 3 2 2 2 2 2 2 2 2 2 1 1 1 1 0 1 0 1 1 1 2 2 2 1 1 2 2 1 0 1 1 1 1 1 2 3 3
10 10 8 6 5 3 2 2 1 1 1 2 2 2 2 2 2 1 1 1 1 1 0 1 1 1 1 1 2 1 1 1 2 2 1 1 1 1 1 2 2 3 4
10 10 10 8 6 5 4 3 2 2 1 2 2 2 2 2 2 2 2 1 0 0 0 1 1 1 1 1 1 1 1 1 1 1 2 2 1 1 2 2 2 2 3
Wind_Direction
90 87 78 73 72 72 70 69 68 68 70 76 81 85 87 90 91 93 92 89 92 96 100 105 106 104 103 104 104 104 102 102 104 106 107 108 108 109 110 113 111 104 107
97 93 83 76 74 74 73 72 70 71 73 76 81 85 88 92 94 96 96 94 95 97 100 102 106 107 106 106 105 107 107 110 113 114 114 110 109 109 108 107 105 111 113
103 100 90 80 77 75 74 74 74 75 79 80 82 86 89 92 95 97 97 97 98 99 100 103 108 110 109 108 109 111 114 117 121 123 122 114 110 107 105 108 111 115 115
98 96 89 86 82 78 77 77 77 77 81 85 87 89 91 93 95 98 100 100 101 102 104 105 107 110 111 113 113 117 123 128 132 137 131 120 114 112 112 112 115 117 116
96 97 94 89 85 82 81 81 81 81 82 86 90 90 91 93 96 99 100 101 102 104 106 106 107 111 112 114 119 125 132 137 143 142 115 105 105 119 118 118 119 121 121
110 103 100 95 90 87 85 84 83 84 85 87 90 90 91 93 97 99 100 102 103 105 106 106 109 111 113 117 123 130 140 146 157 131 118 115 115 126 125 124 123 123 125
109 108 108 104 98 93 90 88 88 88 89 89 91 95 95 96 97 99 102 104 105 105 104 104 109 111 114 117 120 128 139 158 170 114 110 113 121 128 128 127 126 126 126
114 112 115 114 107 100 96 94 94 94 94 95 97 99 100 101 102 103 105 107 107 108 109 109 112 116 120 123 126 130 165 233 126 118 114 114 129 132 131 130 131 131 129
110 119 131 130 121 111 105 103 101 101 102 103 105 107 110 111 109 108 108 110 112 116 118 119 119 122 125 134 150 188 239 260 141 126 120 121 134 136 135 134 134 136 135
111 118 131 130 134 136 124 119 118 116 117 119 121 124 126 125 121 122 118 117 119 122 125 127 130 133 141 157 187 228 268 283 153 121 116 128 139 141 141 140 138 138 140
97 104 114 120 130 134 131 133 140 137 137 143 149 154 155 151 136 136 119 127 130 134 137 141 149 154 160 181 206 225 255 252 124 109 109 129 142 145 146 145 144 145 148
106 111 101 97 103 110 113 131 146 147 147 177 155 164 168 137 127 120 131 141 146 150 155 165 170 175 191 191 200 209 224 195 126 113 120 137 144 149 150 150 150 154 155
117 108 109 101 95 92 100 127 121 118 139 149 131 128 131 138 141 132 151 155 165 170 178 168 184 202 201 194 185 199 193 149 114 115 132 141 146 151 154 155 156 159 163
112 107 99 102 90 69 64 91 125 127 135 122 124 136 115 104 124 134 148 164 173 173 174 169 180 181 171 168 185 196 106 117 112 114 140 148 151 155 158 161 164 167 170
111 109 100 101 96 91 69 343 103 96 102 109 112 101 114 121 109 115 110 148 179 159 159 161 146 139 128 129 152 137 94 108 123 132 140 155 159 163 167 170 173 177 178
121 116 114 120 121 121 123 335 56 104 115 101 107 106 90 97 89 99 134 175 39 118 128 146 147 144 134 115 131 138 126 106 107 134 142 159 168 172 175 178 181 182 186
128 121 122 138 133 142 147 197 145 124 126 118 115 118 103 90 86 90 146 165 185 133 105 92 108 129 151 163 151 152 137 132 127 142 148 159 171 182 181 183 187 190 194
121 119 131 128 125 133 138 161 38 80 95 111 132 138 145 123 119 15 184 151 145 184 126 137 173 131 144 149 156 204 170 141 161 169 167 168 171 180 188 193 194 197 204
121 121 124 106 118 137 149 156 163 123 96 100 113 119 135 140 150 193 165 116 185 197 152 210 135 156 175 162 188 204 192 172 172 187 187 184 175 172 171 185 195 200 207
134 134 133 130 124 146 145 154 152 149 140 140 128 108 115 147 163 205 156 147 206 191 188 152 111 211 183 199 244 214 210 198 183 187 192 189 173 176 173 171 183 198 204
142 140 140 143 138 145 143 161 168 169 173 157 150 131 131 152 139 164 339 157 203 212 196 196 191 211 219 189 219 258 251 215 188 169 181 176 171 163 149 157 173 173 182
147 146 148 150 149 153 159 174 176 169 180 155 126 118 136 154 185 183 190 228 210 190 199 224 217 224 246 209 191 188 205 302 340 180 159 163 151 122 126 140 132 133 145
152 154 155 151 151 161 168 175 176 146 126 95 124 132 155 161 190 163 160 200 247 191 197 210 230 239 241 252 218 196 193 197 108 23 135 140 134 118 123 123 132 147 152
155 153 145 144 145 151 163 179 174 157 158 158 152 144 144 142 166 141 144 157 235 233 214 248 209 259 250 267 276 261 236 166 166 178 21 42 89 91 76 93 102 113 109
158 155 150 144 145 149 162 168 171 157 161 151 139 133 140 144 147 123 123 146 206 218 223 274 301 284 273 274 282 284 278 228 194 172 186 180 89 84 95 90 79 79 82
159 156 154 149 153 157 166 171 165 176 161 124 129 137 167 156 142 127 126 136 155 228 240 262 271 267 262 265 279 289 271 257 217 187 180 176 164 131 97 91 95 97 95